Location: Decatur Area Astronomy Club
(40.0275°N, 88.7810°W)
Time: 20:56:49
(UTC-05:00)

Amateur Radio Satellites - All Passes

Search period start: 28 April 2016 20:26
Search period end: 29 April 2016 20:26
Location: Decatur Area Astronomy Club, 40.0275°N, 88.7810°W

Satellite Date Start Highest point End Downlink Frequencies (MHz)
Time Altitude Azimuth
Cosmos 2504 28 Apr 20:27:10 20:33:50 38° 88° (E) 20:40:18 435.465 / 435.565
AAUSAT CUBESAT 2 28 Apr 20:27:42 20:31:36 43° 73° (ENE) 20:35:31 437.432
CUTE 1.7 + AOD 2 28 Apr 20:39:28 20:43:37 54° 260° (W) 20:47:45 437.475
DOVE 4 28 Apr 20:44:22 20:47:55 19° 269° (W) 20:51:37 437.250
AIST 2 28 Apr 20:45:32 20:46:29 11° 107° (ESE) 20:47:26 435.215
DELFI C3 28 Apr 20:46:54 20:48:49 13° 65° (ENE) 20:50:44 145.870
ZACube-1 28 Apr 20:50:46 20:54:44 30° 70° (ENE) 20:58:40 437.345
RS-15 28 Apr 20:56:09 21:04:04 23° 99° (E) 21:12:13 29.354- 29.394
SEEDS 28 Apr 21:15:57 21:19:33 28° 264° (W) 21:23:11 437.485
PRISM 28 Apr 21:19:23 21:23:35 88° 112° (ESE) 21:27:45 437.425
COMPASS 1 28 Apr 21:28:00 21:31:36 28° 264° (W) 21:35:12 437.405
BEESAT 2 28 Apr 21:28:10 21:31:07 19° 313° (NW) 21:34:05 435.950
BEESAT 3 28 Apr 21:31:27 21:33:11 12° 318° (NW) 21:34:55 437.485
Oscar 11 28 Apr 21:42:00 21:46:16 64° 258° (WSW) 21:50:35 145.826/435.025
CUBEBUG 2 28 Apr 21:42:43 21:47:06 37° 263° (W) 21:51:30 437.445
YUBILEINY 28 Apr 21:43:17 21:49:28 21° 296° (WNW) 21:55:40 435.215
UWE-3 28 Apr 21:44:59 21:49:30 48° 261° (W) 21:54:00 435.000/436.395/437.385
HO-68 28 Apr 21:45:53 21:51:09 22° 267° (W) 21:56:26 435.675
FUNcube-1 28 Apr 21:46:32 21:51:05 72° 259° (W) 21:55:35 145.935
AO-85 28 Apr 21:58:23 22:02:20 24° 45° (NE) 22:06:00 145.980
AAUSAT CUBESAT 2 28 Apr 22:05:06 22:07:18 14° 268° (W) 22:09:31 437.432
TIGRISAT 28 Apr 22:18:41 22:21:06 14° 91° (E) 22:23:28 435.000
DELFI C3 28 Apr 22:19:30 22:23:18 45° 261° (W) 22:27:06 145.870
AIST 2 28 Apr 22:20:17 22:24:23 67° 303° (WNW) 22:28:32 435.215
Cosmos 2504 28 Apr 22:20:30 22:27:08 36° 286° (WNW) 22:33:40 435.465 / 435.565
ZACube-1 28 Apr 22:27:13 22:30:59 25° 265° (W) 22:34:45 437.345
VELOX 1 28 Apr 22:32:53 22:35:23 15° 64° (ENE) 22:37:54 145.980
HUMSAT D 28 Apr 22:34:09 22:38:25 77° 257° (WSW) 22:42:40 437.325/437.525
ANTELSAT 28 Apr 22:40:50 22:44:33 27° 96° (E) 22:48:12 437.575/2403.000
DX 1 28 Apr 22:45:21 22:48:19 18° 65° (ENE) 22:51:19 434.975-435.025
UKube-1 28 Apr 23:00:05 23:03:20 21° 67° (ENE) 23:06:36 .
ESTCUBE 1 28 Apr 23:02:10 23:06:20 40° 71° (ENE) 23:10:33 437.505/2401.250
AISAT 28 Apr 23:02:37 23:06:32 32° 69° (ENE) 23:10:30 437.250
RS-15 28 Apr 23:03:29 23:14:45 89° 299° (WNW) 23:26:44 29.354- 29.394
50 SAT 28 Apr 23:12:52 23:16:19 40° 73° (ENE) 23:19:46 437.505
QB50P2 28 Apr 23:31:24 23:34:33 20° 94° (E) 23:37:39 145.880/145.840
POLYITAN 1 28 Apr 23:33:29 23:36:39 20° 94° (E) 23:39:46 437.675
UNISAT 6 28 Apr 23:34:33 23:38:56 72° 285° (WNW) 23:43:11 437.425
GONETS M04 28 Apr 23:34:43 23:39:36 16° 76° (ENE) 23:44:28
POPSAT HIP 1 28 Apr 23:37:15 23:40:33 22° 94° (E) 23:43:48 437.405
DUCHIFAT 1 28 Apr 23:37:33 23:40:41 20° 94° (E) 23:43:46 145.980
SPROUT 28 Apr 23:38:08 23:41:43 26° 69° (ENE) 23:45:20 437.525
AO-85 28 Apr 23:38:33 23:43:01 42° 245° (WSW) 23:47:04 145.980
QB50P1 28 Apr 23:40:48 23:44:16 24° 95° (E) 23:47:42 145.935-145.965
CUBEBUG 1 28 Apr 23:51:55 23:56:17 81° 259° (W) 00:00:42 437.445
TIGRISAT 28 Apr 23:53:52 23:58:04 46° 288° (WNW) 00:02:09 435.000
VELOX 1 29 Apr 00:07:06 00:11:24 52° 260° (W) 00:15:45 145.980
AIST 1 29 Apr 00:17:05 00:19:58 18° 87° (E) 00:22:53
ANTELSAT 29 Apr 00:17:36 00:21:10 25° 292° (WNW) 00:24:40 437.575/2403.000
NANOSAT C BR1 29 Apr 00:17:42 00:21:55 62° 101° (ESE) 00:26:04 145.865
DX 1 29 Apr 00:20:06 00:24:12 40° 261° (W) 00:28:20 434.975-435.025
TISAT 1 29 Apr 00:29:06 00:32:45 29° 69° (ENE) 00:36:25 437.305
UKube-1 29 Apr 00:35:17 00:39:11 33° 263° (W) 00:43:07 .
BUGSAT 1 29 Apr 00:37:58 00:42:03 46° 99° (E) 00:46:03 437.445
AISAT 29 Apr 00:39:33 00:43:02 23° 265° (W) 00:46:34 437.250
ESTCUBE 1 29 Apr 00:40:16 00:43:19 18° 267° (W) 00:46:22 437.505/2401.250
Cosmos 2499 29 Apr 00:48:24 00:53:41 23° 83° (E) 00:58:54 435.465 / 435.565
50 SAT 29 Apr 00:48:54 00:50:19 12° 268° (W) 00:51:43 437.505
JAS-2 29 Apr 00:50:44 00:56:56 26° 92° (E) 01:03:11 435.910
QB50P2 29 Apr 01:06:35 01:10:24 33° 290° (WNW) 01:14:12 145.880/145.840
CUSAT 1 29 Apr 01:08:20 01:11:49 14° 65° (ENE) 01:15:32 437.405
POLYITAN 1 29 Apr 01:08:42 01:12:29 32° 290° (WNW) 01:16:15 437.675
POPSAT HIP 1 29 Apr 01:12:37 01:16:21 30° 290° (WNW) 01:20:03 437.405
DUCHIFAT 1 29 Apr 01:12:39 01:16:26 32° 290° (WNW) 01:20:11 145.980
SPROUT 29 Apr 01:13:59 01:17:36 26° 265° (W) 01:21:15 437.525
O/OREOS (USA 219) 29 Apr 01:14:28 01:18:39 35° 62° (ENE) 01:22:46 437.305
QB50P1 29 Apr 01:16:24 01:20:01 27° 291° (WNW) 01:23:35 145.935-145.965
RS-15 29 Apr 01:19:06 01:29:03 32° 328° (NNW) 01:39:30 29.354- 29.394
ITUPSAT 1 29 Apr 01:23:34 01:27:14 23° 66° (ENE) 01:30:54 437.325
GONETS M04 29 Apr 01:26:09 01:35:01 86° 96° (E) 01:43:55
SWISSCUBE 29 Apr 01:34:49 01:39:01 32° 69° (ENE) 01:43:14 437.505
PCSat 29 Apr 01:36:20 01:41:35 46° 56° (NE) 01:46:47 145.827
Oscar 19 29 Apr 01:38:36 01:43:04 28° 96° (E) 01:47:28 437.125/150
AIST 1 29 Apr 01:53:21 01:57:16 34° 283° (WNW) 02:01:15
NANOSAT C BR1 29 Apr 01:55:33 01:57:06 12° 297° (WNW) 01:58:39 145.865
TISAT 1 29 Apr 02:04:59 02:08:23 23° 265° (W) 02:11:48 437.305
BEESAT 29 Apr 02:07:58 02:12:41 64° 74° (ENE) 02:17:25 436.000
BUGSAT 1 29 Apr 02:14:36 02:17:00 15° 296° (WNW) 02:19:24 437.445
JAS-2 29 Apr 02:34:42 02:42:20 68° 288° (WNW) 02:50:06 435.910
Gurwin Techsat 1B 29 Apr 02:36:17 02:41:18 40° 98° (E) 02:46:15 435.225
Cosmos 2499 29 Apr 02:39:11 02:46:11 57° 281° (WNW) 02:53:09 435.465 / 435.565
ITAMSAT 1 29 Apr 02:47:46 02:51:38 21° 94° (E) 02:55:28 435.822/435.867
CUSAT 1 29 Apr 02:47:48 02:54:41 74° 80° (E) 03:02:41 437.405
DANDE 29 Apr 02:50:21 02:56:06 40° 77° (ENE) 03:03:11 436.750
O/OREOS (USA 219) 29 Apr 02:54:24 02:57:48 21° 259° (WSW) 03:01:10 437.305
ITUPSAT 1 29 Apr 03:00:25 03:04:51 38° 262° (W) 03:09:17 437.325
SWISSCUBE 29 Apr 03:12:54 03:16:49 25° 265° (W) 03:20:46 437.505
Oscar 19 29 Apr 03:17:42 03:22:23 34° 292° (WNW) 03:27:01 437.125/150
MOZHAYETS 4 29 Apr 03:18:58 03:22:48 27° 68° (ENE) 03:26:37
PCSat 29 Apr 03:20:23 03:24:39 24° 253° (WSW) 03:28:54 145.827
GONETS M04 29 Apr 03:26:57 03:33:00 20° 296° (WNW) 03:39:06
RS-15 29 Apr 03:38:41 03:47:01 21° 3° (N) 03:55:33 29.354- 29.394
KKS-1 29 Apr 03:46:56 03:51:25 89° 65° (ENE) 03:55:56 437.445
BEESAT 29 Apr 03:48:48 03:50:52 13° 269° (W) 03:52:58 436.000
BEESAT 2 29 Apr 04:08:20 04:11:30 22° 48° (NE) 04:14:38 435.950
BEESAT 3 29 Apr 04:09:11 04:12:51 34° 52° (NE) 04:16:27 437.485
STARS 29 Apr 04:15:29 04:19:55 86° 253° (WSW) 04:24:24 437.465
Gurwin Techsat 1B 29 Apr 04:16:42 04:21:00 26° 295° (WNW) 04:25:18 435.225
JAS-2 29 Apr 04:22:17 04:26:01 14° 306° (NW) 04:29:49 435.910
AO-7 29 Apr 04:22:19 04:30:24 52° 102° (ESE) 04:38:27 29.400- 29.500
ITAMSAT 1 29 Apr 04:26:22 04:31:18 46° 290° (WNW) 04:36:13 435.822/435.867
CUSAT 1 29 Apr 04:31:15 04:36:22 22° 273° (W) 04:41:58 437.405
DANDE 29 Apr 04:33:13 04:38:53 36° 267° (W) 04:45:44 436.750
CUBESAT XI-V 29 Apr 04:52:04 04:55:58 28° 69° (ENE) 04:59:52 437.345
MOZHAYETS 4 29 Apr 04:55:55 04:59:52 28° 264° (W) 05:03:50
HORYU 2 29 Apr 05:06:21 05:10:21 32° 97° (E) 05:14:19 437.375
BEESAT 2 29 Apr 05:45:48 05:49:25 34° 245° (WSW) 05:53:01 435.950
BEESAT 3 29 Apr 05:47:27 05:50:18 19° 249° (WSW) 05:53:08 437.485
RS-15 29 Apr 05:53:35 06:04:38 37° 37° (NE) 06:15:44 29.354- 29.394
YUBILEINY 29 Apr 05:54:11 06:02:12 39° 73° (ENE) 06:10:11 435.215
STRAND 1 29 Apr 06:04:45 06:08:00 17° 63° (ENE) 06:11:16 437.568
Cubesat XI-IV 29 Apr 06:07:35 06:10:52 16° 92° (E) 06:14:10 437.490
AO-7 29 Apr 06:15:30 06:22:52 37° 300° (WNW) 06:30:15 29.400- 29.500
NOAA 15 29 Apr 06:20:01 06:24:49 33° 97° (E) 06:29:35 137.62
Cosmos 2504 29 Apr 06:21:25 06:24:13 12° 62° (ENE) 06:27:05 435.465 / 435.565
CUBESAT XI-V 29 Apr 06:29:22 06:33:16 27° 265° (W) 06:37:13 437.345
Cosmos 2491 29 Apr 06:35:18 06:43:05 37° 85° (E) 06:50:54 435.465 / 435.565
NOAA 18 29 Apr 06:40:01 06:45:14 45° 100° (E) 06:50:25 137.9125
AIST 2 29 Apr 06:42:12 06:46:20 63° 57° (ENE) 06:50:25 435.215
HORYU 2 29 Apr 06:43:18 06:46:43 22° 293° (WNW) 06:50:08 437.375
GOMX 1 29 Apr 06:48:13 06:52:24 22° 92° (E) 06:56:27 467.674
BRITE-PL 29 Apr 06:51:46 06:57:16 48° 98° (E) 07:02:43 437.365/2234.400
SO-50 29 Apr 06:54:35 06:55:22 10° 106° (ESE) 06:56:09 436.795
AUBIESAT-1 29 Apr 07:02:21 07:03:34 11° 94° (E) 07:04:46 437.475
CUTE-I 29 Apr 07:03:01 07:08:15 56° 101° (E) 07:13:28 437.470
DOVE 4 29 Apr 07:06:30 07:09:26 15° 89° (E) 07:12:17 437.250
LilacSat-2 29 Apr 07:18:51 07:22:41 89° 102° (ESE) 07:26:28 437.200
HO-68 29 Apr 07:28:00 07:30:02 11° 87° (E) 07:32:03 435.675
STRAND 1 29 Apr 07:41:40 07:46:42 58° 259° (W) 07:51:44 437.568
Cubesat XI-IV 29 Apr 07:46:06 07:51:20 60° 288° (WNW) 07:56:33 437.490
YUBILEINY 29 Apr 07:50:58 07:59:02 44° 272° (W) 08:07:05 435.215
CANX-2 29 Apr 07:53:14 07:55:00 12° 91° (E) 07:56:45 2200.000
NOAA 15 29 Apr 07:59:54 08:04:29 30° 293° (WNW) 08:09:04 137.62
RS-15 29 Apr 08:06:11 08:18:30 81° 242° (WSW) 08:30:45 29.354- 29.394
PRISM 29 Apr 08:08:02 08:12:01 56° 73° (ENE) 08:16:02 437.425
ISS 29 Apr 08:10:24 08:13:00 22° 133° (SE) 08:15:37 145.825
Cosmos 2504 29 Apr 08:11:21 08:18:52 73° 81° (E) 08:26:54 435.465 / 435.565
M-CUBED/EXP-1 PRIME 29 Apr 08:12:04 08:16:10 76° 288° (WNW) 08:19:53 437.505
CINEMA 3 29 Apr 08:19:43 08:23:32 24° 93° (E) 08:27:12 145.822/145.860
NOAA 18 29 Apr 08:21:17 08:25:36 24° 296° (WNW) 08:29:54 137.9125
AIST 2 29 Apr 08:22:55 08:24:16 11° 252° (WSW) 08:25:37 435.215
CUTE 1.7 + AOD 2 29 Apr 08:25:21 08:28:53 25° 95° (E) 08:32:23 437.475
GOMX 1 29 Apr 08:25:25 08:30:41 48° 288° (WNW) 08:35:46 467.674
SO-50 29 Apr 08:30:11 08:35:06 89° 291° (WNW) 08:40:04 436.795
BRITE-PL 29 Apr 08:30:52 08:35:23 25° 294° (WNW) 08:39:54 437.365/2234.400
Cosmos 2491 29 Apr 08:31:14 08:39:39 48° 285° (WNW) 08:48:09 435.465 / 435.565
AUBIESAT-1 29 Apr 08:34:35 08:38:29 49° 292° (WNW) 08:42:04 437.475
DOVE 4 29 Apr 08:42:25 08:47:35 62° 286° (WNW) 08:52:29 437.250
CUTE-I 29 Apr 08:44:12 08:47:50 19° 297° (WNW) 08:51:29 437.470
SEEDS 29 Apr 08:59:47 09:03:49 46° 99° (E) 09:07:51 437.485
COMPASS 1 29 Apr 09:10:51 09:14:49 43° 99° (E) 09:18:48 437.405
HO-68 29 Apr 09:11:38 09:18:49 75° 105° (ESE) 09:25:58 435.675
TIGRISAT 29 Apr 09:17:00 09:19:30 14° 64° (ENE) 09:21:58 435.000
CANX-2 29 Apr 09:27:04 09:31:10 52° 286° (WNW) 09:35:15 2200.000
Oscar 11 29 Apr 09:30:21 09:33:49 23° 95° (E) 09:37:15 145.826/435.025
CUBEBUG 2 29 Apr 09:34:15 09:38:30 48° 99° (E) 09:42:36 437.445
UWE-3 29 Apr 09:35:41 09:39:36 34° 97° (E) 09:43:25 435.000/436.395/437.385
FUNcube-1 29 Apr 09:36:11 09:39:26 21° 94° (E) 09:42:37 145.935
ANTELSAT 29 Apr 09:38:52 09:42:39 25° 68° (ENE) 09:46:25 437.575/2403.000
AAUSAT CUBESAT 2 29 Apr 09:45:40 09:49:49 88° 271° (W) 09:53:58 437.432
ISS 29 Apr 09:46:13 09:49:18 39° 329° (NNW) 09:52:25 145.825
PRISM 29 Apr 09:46:41 09:47:41 11° 269° (W) 09:48:41 437.425
CINEMA 3 29 Apr 09:56:31 10:00:41 31° 291° (WNW) 10:04:41 145.822/145.860
DELFI C3 29 Apr 09:58:16 10:01:24 22° 95° (E) 10:04:31 145.870
CUTE 1.7 + AOD 2 29 Apr 10:01:10 10:04:38 25° 291° (WNW) 10:08:06 437.475
Cosmos 2504 29 Apr 10:06:23 10:11:29 20° 278° (W) 10:16:48 435.465 / 435.565
SO-50 29 Apr 10:13:25 10:16:18 15° 320° (NW) 10:19:10 436.795
ZACube-1 29 Apr 10:15:29 10:19:42 66° 101° (E) 10:23:50 437.345
HUMSAT D 29 Apr 10:19:26 10:22:06 17° 93° (E) 10:24:45 437.325/437.525
RS-15 29 Apr 10:21:22 10:29:01 19° 262° (W) 10:36:40 29.354- 29.394
QB50P2 29 Apr 10:24:13 10:26:40 15° 65° (ENE) 10:29:08 145.880/145.840
POLYITAN 1 29 Apr 10:26:15 10:28:46 15° 65° (ENE) 10:31:18 437.675
DUCHIFAT 1 29 Apr 10:29:41 10:32:04 15° 65° (ENE) 10:34:29 145.980
POPSAT HIP 1 29 Apr 10:29:49 10:32:28 16° 65° (ENE) 10:35:09 437.405
UNISAT 6 29 Apr 10:31:59 10:36:41 90° 81° (E) 10:41:20 437.425
QB50P1 29 Apr 10:33:11 10:36:05 18° 66° (ENE) 10:38:59 145.935-145.965
SEEDS 29 Apr 10:36:48 10:39:08 15° 295° (WNW) 10:41:29 437.485
COMPASS 1 29 Apr 10:47:36 10:50:01 15° 294° (WNW) 10:52:27 437.405
TIGRISAT 29 Apr 10:51:03 10:55:41 60° 259° (W) 11:00:16 435.000
HO-68 29 Apr 11:00:40 11:05:47 22° 303° (WNW) 11:10:54 435.675
Oscar 11 29 Apr 11:06:13 11:09:56 29° 290° (WNW) 11:13:37 145.826/435.025
NANOSAT C BR1 29 Apr 11:09:00 11:13:01 41° 72° (ENE) 11:17:03 145.865
FUNcube-1 29 Apr 11:12:02 11:15:42 29° 290° (WNW) 11:19:19 145.935
CUBEBUG 2 29 Apr 11:12:12 11:14:40 15° 296° (WNW) 11:17:06 437.445
UWE-3 29 Apr 11:12:43 11:15:49 20° 294° (WNW) 11:18:52 435.000/436.395/437.385
ANTELSAT 29 Apr 11:15:00 11:19:12 32° 263° (W) 11:23:22 437.575/2403.000
ISS 29 Apr 11:24:52 11:26:29 13° 348° (NNW) 11:28:06 145.825
BUGSAT 1 29 Apr 11:27:02 11:30:43 30° 70° (ENE) 11:34:27 437.445
DELFI C3 29 Apr 11:32:55 11:36:14 26° 290° (WNW) 11:39:33 145.870
GONETS M04 29 Apr 11:37:42 11:45:54 42° 74° (ENE) 11:54:00
CUBEBUG 1 29 Apr 11:41:58 11:45:14 20° 94° (E) 11:48:29 437.445
HUMSAT D 29 Apr 11:54:07 11:57:51 35° 289° (WNW) 12:01:34 437.325/437.525
ZACube-1 29 Apr 11:54:20 11:55:24 11° 298° (WNW) 11:56:28 437.345
QB50P2 29 Apr 11:57:56 12:02:04 48° 261° (W) 12:06:15 145.880/145.840
VELOX 1 29 Apr 11:58:02 12:01:58 30° 97° (E) 12:05:53 145.980
PHONESAT 2.4 29 Apr 11:59:47 12:02:43 36° 157° (SSE) 12:05:40 2401.200-2431.200
POLYITAN 1 29 Apr 12:00:02 12:04:10 47° 260° (W) 12:08:21 437.675
AIST 1 29 Apr 12:00:28 12:04:46 50° 79° (E) 12:09:03
DUCHIFAT 1 29 Apr 12:03:14 12:07:21 48° 260° (W) 12:11:31 145.980
POPSAT HIP 1 29 Apr 12:03:48 12:07:54 44° 261° (W) 12:12:02 437.405
QB50P1 29 Apr 12:07:32 12:11:33 39° 262° (W) 12:15:36 145.935-145.965
DX 1 29 Apr 12:08:47 12:12:49 34° 98° (E) 12:16:48 434.975-435.025
50 SAT 29 Apr 12:16:47 12:20:24 58° 101° (E) 12:24:00 437.505
UKube-1 29 Apr 12:22:37 12:26:43 40° 99° (E) 12:30:47 .
AISAT 29 Apr 12:29:10 12:33:39 71° 102° (ESE) 12:38:06 437.250
Cosmos 2499 29 Apr 12:29:22 12:36:41 47° 77° (ENE) 12:44:30 435.465 / 435.565
ESTCUBE 1 29 Apr 12:31:30 12:36:03 82° 284° (WNW) 12:40:35 437.505/2401.250
NANOSAT C BR1 29 Apr 12:46:15 12:48:55 16° 267° (W) 12:51:36 145.865
JAS-2 29 Apr 12:46:20 12:51:55 52° 69° (ENE) 12:58:14 435.910
Oscar 19 29 Apr 12:54:40 12:59:24 38° 69° (ENE) 13:04:12 437.125/150
SPROUT 29 Apr 12:59:49 13:04:03 54° 100° (E) 13:08:14 437.525
ISS 29 Apr 13:02:41 13:04:04 12° 9° (N) 13:05:28 145.825
BUGSAT 1 29 Apr 13:02:50 13:06:06 22° 266° (W) 13:09:25 437.445
CUBEBUG 1 29 Apr 13:17:33 13:21:37 36° 289° (WNW) 13:25:40 437.445
AO-7 29 Apr 13:33:11 13:37:17 15° 47° (NE) 13:41:24 29.400- 29.500
GONETS M04 29 Apr 13:34:39 13:42:39 42° 273° (W) 13:50:35
VELOX 1 29 Apr 13:34:39 13:38:18 25° 292° (WNW) 13:41:55 145.980
PHONESAT 2.4 29 Apr 13:36:19 13:39:29 86° 354° (N) 13:42:39 2401.200-2431.200
AIST 1 29 Apr 13:39:50 13:41:53 13° 275° (W) 13:43:55
DX 1 29 Apr 13:45:28 13:48:46 21° 294° (WNW) 13:52:04 434.975-435.025
TISAT 1 29 Apr 13:48:34 13:52:44 55° 100° (E) 13:56:51 437.305
AO-85 29 Apr 13:50:21 13:55:47 76° 119° (ESE) 14:01:13 145.980
Gurwin Techsat 1B 29 Apr 13:56:37 14:01:49 60° 73° (ENE) 14:07:04 435.225
UKube-1 29 Apr 13:59:29 14:02:28 18° 295° (WNW) 14:05:25 .
ITAMSAT 1 29 Apr 14:04:57 14:09:26 31° 67° (ENE) 14:13:56 435.822/435.867
AISAT 29 Apr 14:07:56 14:09:31 12° 298° (WNW) 14:11:06 437.250
BEESAT 29 Apr 14:09:53 14:12:58 17° 93° (E) 14:16:01 436.000
Cosmos 2499 29 Apr 14:22:53 14:29:33 34° 273° (W) 14:36:38 435.465 / 435.565
JAS-2 29 Apr 14:33:00 14:37:27 23° 270° (W) 14:42:18 435.910
Oscar 19 29 Apr 14:34:38 14:38:49 25° 265° (W) 14:43:02 437.125/150
SPROUT 29 Apr 14:37:22 14:39:32 14° 296° (WNW) 14:41:41 437.525
ISS 29 Apr 14:38:21 14:41:20 31° 28° (NNE) 14:44:17 145.825
ITUPSAT 1 29 Apr 15:01:03 15:05:45 56° 101° (E) 15:10:26 437.325
SWISSCUBE 29 Apr 15:12:33 15:17:21 85° 107° (ESE) 15:22:06 437.505
PHONESAT 2.4 29 Apr 15:13:14 15:16:25 83° 189° (S) 15:19:35 2401.200-2431.200
AO-7 29 Apr 15:20:21 15:28:30 66° 68° (ENE) 15:36:41 29.400- 29.500
SO-50 29 Apr 15:24:12 15:25:51 12° 36° (NE) 15:27:29 436.795
O/OREOS (USA 219) 29 Apr 15:25:44 15:30:07 46° 107° (ESE) 15:34:32 437.305
TISAT 1 29 Apr 15:25:56 15:27:55 13° 296° (WNW) 15:29:53 437.305
AO-85 29 Apr 15:32:52 15:36:51 20° 317° (NW) 15:40:49 145.980
Gurwin Techsat 1B 29 Apr 15:38:54 15:42:09 16° 269° (W) 15:45:26 435.225
KKS-1 29 Apr 15:39:35 15:42:39 18° 93° (E) 15:45:40 437.445
ITAMSAT 1 29 Apr 15:44:15 15:48:49 31° 263° (W) 15:53:25 435.822/435.867
BEESAT 29 Apr 15:46:25 15:51:00 48° 288° (WNW) 15:55:33 436.000
CUSAT 1 29 Apr 15:53:07 15:56:10 67° 97° (E) 16:00:06 437.405
DANDE 29 Apr 16:02:40 16:04:48 21° 90° (E) 16:07:13 436.750
HORYU 2 29 Apr 16:03:47 16:07:38 29° 69° (ENE) 16:11:30 437.375
STARS 29 Apr 16:06:38 16:09:38 18° 93° (E) 16:12:38 437.465
ISS 29 Apr 16:14:51 16:17:45 30° 225° (SW) 16:20:39 145.825
PCSat 29 Apr 16:17:12 16:22:22 48° 112° (ESE) 16:27:35 145.827
NOAA 18 29 Apr 16:29:40 16:31:20 11° 57° (ENE) 16:33:00 137.9125
ITUPSAT 1 29 Apr 16:40:16 16:43:07 16° 297° (WNW) 16:45:57 437.325
Cosmos 2491 29 Apr 16:47:07 16:52:31 17° 61° (ENE) 16:57:51 435.465 / 435.565
CUTE-I 29 Apr 16:48:38 16:50:17 11° 58° (ENE) 16:51:57 437.470
PHONESAT 2.4 29 Apr 16:50:21 16:53:05 26° 206° (SSW) 16:55:48 2401.200-2431.200
MOZHAYETS 4 29 Apr 16:50:39 16:55:13 69° 101° (E) 16:59:46
SWISSCUBE 29 Apr 16:53:13 16:54:25 11° 300° (WNW) 16:55:37 437.505
SO-50 29 Apr 17:02:34 17:07:18 67° 56° (NE) 17:11:50 436.795
O/OREOS (USA 219) 29 Apr 17:06:32 17:09:46 19° 304° (NW) 17:13:01 437.305
AO-7 29 Apr 17:15:07 17:21:46 27° 265° (W) 17:28:29 29.400- 29.500
KKS-1 29 Apr 17:15:10 17:19:23 41° 289° (WNW) 17:23:33 437.445
M-CUBED/EXP-1 PRIME 29 Apr 17:24:57 17:27:27 14° 58° (ENE) 17:29:57 437.505
Cubesat XI-IV 29 Apr 17:28:35 17:32:59 27° 66° (ENE) 17:37:23 437.490
NOAA 15 29 Apr 17:39:20 17:44:24 50° 71° (ENE) 17:49:29 137.62
HORYU 2 29 Apr 17:40:27 17:44:09 25° 264° (W) 17:47:52 437.375
STARS 29 Apr 17:42:01 17:46:09 39° 289° (WNW) 17:50:14 437.465
AUBIESAT-1 29 Apr 17:46:05 17:49:19 19° 61° (ENE) 17:52:32 437.475
GOMX 1 29 Apr 17:55:46 17:59:25 21° 64° (ENE) 18:03:13 467.674
LilacSat-2 29 Apr 18:00:03 18:03:40 38° 73° (ENE) 18:07:17 437.200
PCSat 29 Apr 18:01:30 18:05:59 26° 311° (NW) 18:10:30 145.827
BRITE-PL 29 Apr 18:02:02 18:06:27 44° 71° (ENE) 18:11:17 437.365/2234.400
NOAA 18 29 Apr 18:05:34 18:11:05 80° 74° (ENE) 18:16:38 137.9125
DOVE 4 29 Apr 18:11:18 18:14:13 16° 62° (ENE) 18:17:11 437.250
CUTE-I 29 Apr 18:24:10 18:29:30 86° 75° (ENE) 18:34:51 437.470
CUBESAT XI-V 29 Apr 18:25:30 18:30:12 76° 102° (ESE) 18:34:54 437.345
MOZHAYETS 4 29 Apr 18:29:58 18:31:48 12° 298° (WNW) 18:33:37
Cosmos 2491 29 Apr 18:41:53 18:50:46 84° 83° (E) 18:59:33 435.465 / 435.565
SO-50 29 Apr 18:45:01 18:47:08 13° 253° (WSW) 18:49:13 436.795
YUBILEINY 29 Apr 18:54:10 19:02:21 46° 88° (E) 19:10:29 435.215
M-CUBED/EXP-1 PRIME 29 Apr 18:56:43 19:01:24 72° 253° (WSW) 19:06:08 437.505
Cubesat XI-IV 29 Apr 19:07:55 19:12:52 38° 262° (W) 19:17:50 437.490
CUTE 1.7 + AOD 2 29 Apr 19:18:06 19:20:57 18° 66° (ENE) 19:23:46 437.475
AUBIESAT-1 29 Apr 19:18:54 19:23:25 50° 256° (WSW) 19:27:56 437.475
CINEMA 3 29 Apr 19:20:13 19:24:09 24° 67° (ENE) 19:28:07 145.822/145.860
NOAA 15 29 Apr 19:20:43 19:24:26 19° 267° (W) 19:28:11 137.62
GOMX 1 29 Apr 19:32:23 19:37:03 47° 262° (W) 19:42:06 467.674
LilacSat-2 29 Apr 19:35:59 19:38:07 14° 268° (W) 19:40:16 437.200
BEESAT 3 29 Apr 19:36:21 19:40:16 80° 120° (ESE) 19:44:14 437.485
BEESAT 2 29 Apr 19:36:47 19:40:34 44° 117° (ESE) 19:44:23 435.950
HO-68 29 Apr 19:39:12 19:46:05 52° 68° (ENE) 19:52:59 435.675
BRITE-PL 29 Apr 19:41:58 19:45:15 19° 270° (W) 19:48:43 437.365/2234.400
DOVE 4 29 Apr 19:46:16 19:51:14 68° 259° (W) 19:56:28 437.250
NOAA 18 29 Apr 19:50:03 19:52:20 13° 270° (W) 19:54:37 137.9125
SEEDS 29 Apr 19:51:03 19:54:40 29° 70° (ENE) 19:58:17 437.485
STRAND 1 29 Apr 19:52:44 19:57:42 50° 100° (E) 20:02:38 437.568
COMPASS 1 29 Apr 20:01:13 20:04:44 27° 70° (ENE) 20:08:13 437.405
CUBESAT XI-V 29 Apr 20:05:18 20:06:57 12° 298° (WNW) 20:08:34 437.345
CUTE-I 29 Apr 20:08:53 20:10:11 11° 271° (W) 20:11:28 437.470
